THORAD AGENA D DEB, 4709

Orbit data source: Space-Track

THORAD AGENA D DEB, 4709 is space debris in SSO originally from a launch on Wed, 08 Apr 1970 UTC launched from the Air Force Western Test Range (AFWTR). Debris objects in space refer to the collection of defunct objects orbiting the Earth. Examples of debris include non-operational satellites, rocket bodies, and fragments generated from explosions, collisions, or faulty payload assembly.

Loading next visibility...
Identifier
4709, 1970-025BX
Orbit
SSO
Country
Flag of USUS
Related business
Manufacturer
Unknown
Mission
Spacecraft
Bus & Motor
Unknown
Mass
Unknown
Launch date (UTC)
1970-04-08 (56 years ago)
Launch vehicle
Unknown
Launch site
Air Force Western Test Range (AFWTR)
Object type
Payload
Rocket body
Debris
Shape & HBR
Unknown shape, 0.1 m
Radar Cross Section
Small (<0.1 m²)

Expand to show TLE details & history
Last TLE update: 18 hours ago

TLE from 18 hours ago
0 THORAD AGENA D DEB
1 04709U 70025BX  25355.18749200  .00003552  00000-0  74188-3 0  9991
2 04709 100.0175 242.1641 0072804 286.9828  72.3396 14.59079156877234
Epoch: 2025-12-21T04:29Z
TLE epoch observation values (Epoch: 2025-12-21T04:29:59.308Z)
Latitude
-0.00003°
Longitude
84.66345°
Altitude
683.785 km
Speed
7.523 km/s
True Right ascension
16h 08m 39s
True Declination
0° 00' 00"
Sunlit
Object was in daylight at epoch
Visualization orbit readout
Latitude
Unknown
Longitude
Unknown
Altitude
Unknown
Speed
Unknown
Apparent Right ascension
Unknown
Apparent Declination
Unknown
Sunlit
N/A
Visualization observer readout
Local Sidereal Time
21:35:07
Azimuth
Unknown
Elevation
Unknown
Doppler factor
Unknown
Orbital elements
Apogee altitude
744.807 km
Perigee altitude
641.841 km
Semi-major axis
7,071.461 km
Eccentricity
0.00728
Inclination
100.0175°
RAAN
242.1641°
Arg. of periapsis
286.9828°
True anomaly
73.13673°
Mean anomaly
72.3396°
Eccentric anomaly
72.73795°
Mean motion
3.64989 °/min
Orbital period
98.63 mins
BSTAR
0.00074188
Loading maneuver chart data...
Computing Atmospheric mass density...
Loading historical data...
Loading historical data...
Loading historical data...
Loading historical data...
Loading historical data...
Loading historical data...
Loading historical data...

Documentation

Showing up to 5 results
|